Year,Month,Day,Hour,Minute,Value (Times are PST for temperature in C)
2014,04,09,00,00,8.60
2014,04,09,00,01,8.60
2014,04,09,00,02,8.60
2014,04,09,00,03,8.60
2014,04,09,00,04,8.60
2014,04,09,00,05,8.60
2014,04,09,00,06,8.70
2014,04,09,00,07,8.70
2014,04,09,00,08,8.80
2014,04,09,00,09,8.80
2014,04,09,00,10,8.80
2014,04,09,00,11,8.80
2014,04,09,00,12,8.80
2014,04,09,00,13,8.80
2014,04,09,00,14,8.80
2014,04,09,00,15,8.80
2014,04,09,00,16,8.80
2014,04,09,00,17,8.80
2014,04,09,00,18,8.80
2014,04,09,00,19,8.80
2014,04,09,00,20,8.70
2014,04,09,00,21,8.70
2014,04,09,00,22,8.70
2014,04,09,00,23,8.70
2014,04,09,00,24,8.60
2014,04,09,00,25,8.60
2014,04,09,00,26,8.60
2014,04,09,00,27,8.60
2014,04,09,00,28,8.60
2014,04,09,00,29,8.60
2014,04,09,00,30,8.60
2014,04,09,00,31,8.50
2014,04,09,00,32,8.50
2014,04,09,00,33,8.50
2014,04,09,00,34,8.50
2014,04,09,00,35,8.50
2014,04,09,00,36,8.50
2014,04,09,00,37,8.50
2014,04,09,00,38,8.40
2014,04,09,00,39,8.40
2014,04,09,00,40,8.40
2014,04,09,00,41,8.40
2014,04,09,00,42,8.40
2014,04,09,00,43,8.40
2014,04,09,00,44,8.40
2014,04,09,00,45,8.40
2014,04,09,00,46,8.40
2014,04,09,00,47,8.40
2014,04,09,00,48,8.30
2014,04,09,00,49,8.30
2014,04,09,00,50,8.30
2014,04,09,00,51,8.30
2014,04,09,00,52,8.30
2014,04,09,00,53,8.30
2014,04,09,00,54,8.30
2014,04,09,00,55,8.30
2014,04,09,00,56,8.30
2014,04,09,00,57,8.30
2014,04,09,00,58,8.20
2014,04,09,00,59,8.20
2014,04,09,01,00,8.20
2014,04,09,01,01,8.20
2014,04,09,01,02,8.20
2014,04,09,01,03,8.20
2014,04,09,01,04,8.20
2014,04,09,01,05,8.20
2014,04,09,01,06,8.20
2014,04,09,01,07,8.20
2014,04,09,01,08,8.20
2014,04,09,01,09,8.20
2014,04,09,01,10,8.20
2014,04,09,01,11,8.10
2014,04,09,01,12,8.10
2014,04,09,01,13,8.10
2014,04,09,01,14,8.10
2014,04,09,01,15,8.10
2014,04,09,01,16,8.10
2014,04,09,01,17,8.00
2014,04,09,01,18,8.00
2014,04,09,01,19,8.00
2014,04,09,01,20,8.00
2014,04,09,01,21,8.00
2014,04,09,01,22,7.90
2014,04,09,01,23,7.90
2014,04,09,01,24,7.90
2014,04,09,01,25,7.90
2014,04,09,01,26,7.90
2014,04,09,01,27,7.90
2014,04,09,01,28,7.90
2014,04,09,01,29,7.90
2014,04,09,01,30,7.90
2014,04,09,01,31,7.90
2014,04,09,01,32,7.90
2014,04,09,01,33,7.90
2014,04,09,01,34,7.90
2014,04,09,01,35,7.90
2014,04,09,01,36,7.90
2014,04,09,01,37,7.90
2014,04,09,01,38,7.90
2014,04,09,01,39,7.90
2014,04,09,01,40,7.90
2014,04,09,01,41,7.80
2014,04,09,01,42,7.80
2014,04,09,01,43,7.80
2014,04,09,01,44,7.80
2014,04,09,01,45,7.80
2014,04,09,01,46,7.80
2014,04,09,01,47,7.80
2014,04,09,01,48,7.80
2014,04,09,01,49,7.70
2014,04,09,01,50,7.70
2014,04,09,01,51,7.70
2014,04,09,01,52,7.70
2014,04,09,01,53,7.70
2014,04,09,01,54,7.70
2014,04,09,01,55,7.70
2014,04,09,01,56,7.70
2014,04,09,01,57,7.70
2014,04,09,01,58,7.70
2014,04,09,01,59,7.70
2014,04,09,02,00,7.70
2014,04,09,02,01,7.70
2014,04,09,02,02,7.70
2014,04,09,02,03,7.70
2014,04,09,02,04,7.70
2014,04,09,02,05,7.70
2014,04,09,02,06,7.70
2014,04,09,02,07,7.70
2014,04,09,02,08,7.70
2014,04,09,02,09,7.60
2014,04,09,02,10,7.60
2014,04,09,02,11,7.60
2014,04,09,02,12,7.60
2014,04,09,02,13,7.50
2014,04,09,02,14,7.50
2014,04,09,02,15,7.40
2014,04,09,02,16,7.40
2014,04,09,02,17,7.40
2014,04,09,02,18,7.30
2014,04,09,02,19,7.30
2014,04,09,02,20,7.30
2014,04,09,02,21,7.30
2014,04,09,02,22,7.30
2014,04,09,02,23,7.30
2014,04,09,02,24,7.30
2014,04,09,02,25,7.30
2014,04,09,02,26,7.30
2014,04,09,02,27,7.30
2014,04,09,02,28,7.30
2014,04,09,02,29,7.30
2014,04,09,02,30,7.30
2014,04,09,02,31,7.20
2014,04,09,02,32,7.20
2014,04,09,02,33,7.20
2014,04,09,02,34,7.20
2014,04,09,02,35,7.20
2014,04,09,02,36,7.20
2014,04,09,02,37,7.20
2014,04,09,02,38,7.20
2014,04,09,02,39,7.20
2014,04,09,02,40,7.20
2014,04,09,02,41,7.20
2014,04,09,02,42,7.20
2014,04,09,02,43,7.20
2014,04,09,02,44,7.20
2014,04,09,02,45,7.20
2014,04,09,02,46,7.20
2014,04,09,02,47,7.20
2014,04,09,02,48,7.20
2014,04,09,02,49,7.20
2014,04,09,02,50,7.20
2014,04,09,02,51,7.20
2014,04,09,02,52,7.20
2014,04,09,02,53,7.20
2014,04,09,02,54,7.20
2014,04,09,02,55,7.20
2014,04,09,02,56,7.20
2014,04,09,02,57,7.20
2014,04,09,02,58,7.20
2014,04,09,02,59,7.20
2014,04,09,03,00,7.20
2014,04,09,03,01,7.20
2014,04,09,03,02,7.20
2014,04,09,03,03,7.20
2014,04,09,03,04,7.20
2014,04,09,03,05,7.20
2014,04,09,03,06,7.20
2014,04,09,03,07,7.20
2014,04,09,03,08,7.20
2014,04,09,03,09,7.20
2014,04,09,03,10,7.20
2014,04,09,03,11,7.20
2014,04,09,03,12,7.20
2014,04,09,03,13,7.20
2014,04,09,03,14,7.20
2014,04,09,03,15,7.20
2014,04,09,03,16,7.20
2014,04,09,03,17,7.20
2014,04,09,03,18,7.20
2014,04,09,03,19,7.20
2014,04,09,03,20,7.20
2014,04,09,03,21,7.10
2014,04,09,03,22,7.10
2014,04,09,03,23,7.10
2014,04,09,03,24,7.10
2014,04,09,03,25,7.10
2014,04,09,03,26,7.00
2014,04,09,03,27,7.00
2014,04,09,03,28,7.00
2014,04,09,03,29,7.00
2014,04,09,03,30,7.00
2014,04,09,03,31,7.00
2014,04,09,03,32,7.00
2014,04,09,03,33,7.10
2014,04,09,03,34,7.10
2014,04,09,03,35,7.10
2014,04,09,03,36,7.00
2014,04,09,03,37,7.00
2014,04,09,03,38,7.00
2014,04,09,03,39,7.00
2014,04,09,03,40,7.00
2014,04,09,03,41,7.00
2014,04,09,03,42,7.00
2014,04,09,03,43,7.00
2014,04,09,03,44,7.00
2014,04,09,03,45,6.90
2014,04,09,03,46,6.90
2014,04,09,03,47,6.90
2014,04,09,03,48,6.90
2014,04,09,03,49,6.90
2014,04,09,03,50,6.90
2014,04,09,03,51,6.90
2014,04,09,03,52,6.90
2014,04,09,03,53,6.90
2014,04,09,03,54,6.90
2014,04,09,03,55,6.90
2014,04,09,03,56,6.90
2014,04,09,03,57,6.90
2014,04,09,03,58,6.90
2014,04,09,03,59,6.80
2014,04,09,04,00,6.80
2014,04,09,04,01,6.80
2014,04,09,04,02,6.80
2014,04,09,04,03,6.80
2014,04,09,04,04,6.80
2014,04,09,04,05,6.80
2014,04,09,04,06,6.80
2014,04,09,04,07,6.80
2014,04,09,04,08,6.80
2014,04,09,04,09,6.80
2014,04,09,04,10,6.80
2014,04,09,04,11,6.80
2014,04,09,04,12,6.80
2014,04,09,04,13,6.80
2014,04,09,04,14,6.80
2014,04,09,04,15,6.80
2014,04,09,04,16,6.80
2014,04,09,04,17,6.80
2014,04,09,04,18,6.80
2014,04,09,04,19,6.80
2014,04,09,04,20,6.80
2014,04,09,04,21,6.80
2014,04,09,04,22,6.80
2014,04,09,04,23,6.80
2014,04,09,04,24,6.80
2014,04,09,04,25,6.80
2014,04,09,04,26,6.80
2014,04,09,04,27,6.70
2014,04,09,04,28,6.80
2014,04,09,04,29,6.70
2014,04,09,04,30,6.70
2014,04,09,04,31,6.70
2014,04,09,04,32,6.70
2014,04,09,04,33,6.70
2014,04,09,04,34,6.70
2014,04,09,04,35,6.70
2014,04,09,04,36,6.70
2014,04,09,04,37,6.70
2014,04,09,04,38,6.70
2014,04,09,04,39,6.70
2014,04,09,04,40,6.70
2014,04,09,04,41,6.70
2014,04,09,04,42,6.70
2014,04,09,04,43,6.70
2014,04,09,04,44,6.70
2014,04,09,04,45,6.70
2014,04,09,04,46,6.70
2014,04,09,04,47,6.60
2014,04,09,04,48,6.60
2014,04,09,04,49,6.60
2014,04,09,04,50,6.60
2014,04,09,04,51,6.60
2014,04,09,04,52,6.60
2014,04,09,04,53,6.60
2014,04,09,04,54,6.60
2014,04,09,04,55,6.60
2014,04,09,04,56,6.60
2014,04,09,04,57,6.60
2014,04,09,04,58,6.60
2014,04,09,04,59,6.60
2014,04,09,05,00,6.60
2014,04,09,05,01,6.60
2014,04,09,05,02,6.60
2014,04,09,05,03,6.60
2014,04,09,05,04,6.60
2014,04,09,05,05,6.50
2014,04,09,05,06,6.50
2014,04,09,05,07,6.50
2014,04,09,05,08,6.50
2014,04,09,05,09,6.50
2014,04,09,05,10,6.50
2014,04,09,05,11,6.50
2014,04,09,05,12,6.50
2014,04,09,05,13,6.50
2014,04,09,05,14,6.40
2014,04,09,05,15,6.40
2014,04,09,05,16,6.40
2014,04,09,05,17,6.30
2014,04,09,05,18,6.30
2014,04,09,05,19,6.30
2014,04,09,05,20,6.20
2014,04,09,05,21,6.10
2014,04,09,05,22,6.10
2014,04,09,05,23,6.00
2014,04,09,05,24,6.00
2014,04,09,05,25,5.90
2014,04,09,05,26,5.80
2014,04,09,05,27,5.80
2014,04,09,05,28,5.80
2014,04,09,05,29,5.70
2014,04,09,05,30,5.70
2014,04,09,05,31,5.60
2014,04,09,05,32,5.60
2014,04,09,05,33,5.50
2014,04,09,05,34,5.50
2014,04,09,05,35,5.40
2014,04,09,05,36,5.40
2014,04,09,05,37,5.30
2014,04,09,05,38,5.30
2014,04,09,05,39,5.30
2014,04,09,05,40,5.20
2014,04,09,05,41,5.20
2014,04,09,05,42,5.20
2014,04,09,05,43,5.10
2014,04,09,05,44,5.10
2014,04,09,05,45,5.10
2014,04,09,05,46,5.00
2014,04,09,05,47,5.00
2014,04,09,05,48,4.90
2014,04,09,05,49,4.90
2014,04,09,05,50,4.90
2014,04,09,05,51,4.90
2014,04,09,05,52,4.80
2014,04,09,05,53,4.80
2014,04,09,05,54,4.80
2014,04,09,05,55,4.70
2014,04,09,05,56,4.70
2014,04,09,05,57,4.70
2014,04,09,05,58,4.70
2014,04,09,05,59,4.60
2014,04,09,06,00,4.60
2014,04,09,06,01,4.60
2014,04,09,06,02,4.60
2014,04,09,06,03,4.60
2014,04,09,06,04,4.60
2014,04,09,06,05,4.50
2014,04,09,06,06,4.50
2014,04,09,06,07,4.50
2014,04,09,06,08,4.40
2014,04,09,06,09,4.40
2014,04,09,06,10,4.40
2014,04,09,06,11,4.40
2014,04,09,06,12,4.40
2014,04,09,06,13,4.30
2014,04,09,06,14,4.30
2014,04,09,06,15,4.30
2014,04,09,06,16,4.30
2014,04,09,06,17,4.30
2014,04,09,06,18,4.30
2014,04,09,06,19,4.20
2014,04,09,06,20,4.20
2014,04,09,06,21,4.10
2014,04,09,06,22,4.10
2014,04,09,06,23,4.00
2014,04,09,06,24,4.00
2014,04,09,06,25,3.90
2014,04,09,06,26,3.90
2014,04,09,06,27,3.80
2014,04,09,06,28,3.80
2014,04,09,06,29,3.70
2014,04,09,06,30,3.70
2014,04,09,06,31,3.70
2014,04,09,06,32,3.60
2014,04,09,06,33,3.60
2014,04,09,06,34,3.60
2014,04,09,06,35,3.60
2014,04,09,06,36,3.60
2014,04,09,06,37,3.50
2014,04,09,06,38,3.50
2014,04,09,06,39,3.50
2014,04,09,06,40,3.50
2014,04,09,06,41,3.50
2014,04,09,06,42,3.40
2014,04,09,06,43,3.40
2014,04,09,06,44,3.40
2014,04,09,06,45,3.40
2014,04,09,06,46,3.40
2014,04,09,06,47,3.40
2014,04,09,06,48,3.40
2014,04,09,06,49,3.40
2014,04,09,06,50,3.40
2014,04,09,06,51,3.40
2014,04,09,06,52,3.40
2014,04,09,06,53,3.40
2014,04,09,06,54,3.30
2014,04,09,06,55,3.30
2014,04,09,06,56,3.30
2014,04,09,06,57,3.30
2014,04,09,06,58,3.30
2014,04,09,06,59,3.30
2014,04,09,07,00,3.30
2014,04,09,07,01,3.30
2014,04,09,07,02,3.30
2014,04,09,07,03,3.30
2014,04,09,07,04,3.30
2014,04,09,07,05,3.30
2014,04,09,07,06,3.30
2014,04,09,07,07,3.30
2014,04,09,07,08,3.30
2014,04,09,07,09,3.30
2014,04,09,07,10,3.30
2014,04,09,07,11,3.30
2014,04,09,07,12,3.20
2014,04,09,07,13,3.20
2014,04,09,07,14,3.20
2014,04,09,07,15,3.30
2014,04,09,07,16,3.30
2014,04,09,07,17,3.30
2014,04,09,07,18,3.30
2014,04,09,07,19,3.30
2014,04,09,07,20,3.40
2014,04,09,07,21,3.40
2014,04,09,07,22,3.40
2014,04,09,07,23,3.50
2014,04,09,07,24,3.50
2014,04,09,07,25,3.60
2014,04,09,07,26,3.60
2014,04,09,07,27,3.70
2014,04,09,07,28,3.70
2014,04,09,07,29,3.80
2014,04,09,07,30,3.80
2014,04,09,07,31,3.90
2014,04,09,07,32,3.90
2014,04,09,07,33,4.00
2014,04,09,07,34,4.00
2014,04,09,07,35,4.10
2014,04,09,07,36,4.20
2014,04,09,07,37,4.20
2014,04,09,07,38,4.30
2014,04,09,07,39,4.30
2014,04,09,07,40,4.40
2014,04,09,07,41,4.40
2014,04,09,07,42,4.50
2014,04,09,07,43,4.50
2014,04,09,07,44,4.60
2014,04,09,07,45,4.60
2014,04,09,07,46,4.60
2014,04,09,07,47,4.70
2014,04,09,07,48,4.70
2014,04,09,07,49,4.80
2014,04,09,07,50,4.80
2014,04,09,07,51,4.90
2014,04,09,07,52,4.90
2014,04,09,07,53,5.00
2014,04,09,07,54,5.00
2014,04,09,07,55,5.10
2014,04,09,07,56,5.10
2014,04,09,07,57,5.10
2014,04,09,07,58,5.20
2014,04,09,07,59,5.20
2014,04,09,08,00,5.20
2014,04,09,08,01,5.20
2014,04,09,08,02,5.20
2014,04,09,08,03,5.20
2014,04,09,08,04,5.20
2014,04,09,08,05,5.30
2014,04,09,08,06,5.30
2014,04,09,08,07,5.30
2014,04,09,08,08,5.40
2014,04,09,08,09,5.50
2014,04,09,08,10,5.50
2014,04,09,08,11,5.60
2014,04,09,08,12,5.70
2014,04,09,08,13,5.70
2014,04,09,08,14,5.80
2014,04,09,08,15,5.90
2014,04,09,08,16,6.00
2014,04,09,08,17,6.00
2014,04,09,08,18,6.10
2014,04,09,08,19,6.20
2014,04,09,08,20,6.20
2014,04,09,08,21,6.30
2014,04,09,08,22,6.40
2014,04,09,08,23,6.40
2014,04,09,08,24,6.50
2014,04,09,08,25,6.60
2014,04,09,08,26,6.70
2014,04,09,08,27,6.70
2014,04,09,08,28,6.80
2014,04,09,08,29,6.80
2014,04,09,08,30,6.90
2014,04,09,08,31,7.00
2014,04,09,08,32,7.00
2014,04,09,08,33,7.10
2014,04,09,08,34,7.10
2014,04,09,08,35,7.20
2014,04,09,08,36,7.30
2014,04,09,08,37,7.30
2014,04,09,08,38,7.30
2014,04,09,08,39,7.40
2014,04,09,08,40,7.40
2014,04,09,08,41,7.50
2014,04,09,08,42,7.60
2014,04,09,08,43,7.60
2014,04,09,08,44,7.70
2014,04,09,08,45,7.70
2014,04,09,08,46,7.80
2014,04,09,08,47,7.80
2014,04,09,08,48,7.90
2014,04,09,08,49,7.90
2014,04,09,08,50,8.00
2014,04,09,08,51,8.10
2014,04,09,08,52,8.10
2014,04,09,08,53,8.10
2014,04,09,08,54,8.20
2014,04,09,08,55,8.20
2014,04,09,08,56,8.30
2014,04,09,08,57,8.30
2014,04,09,08,58,8.40
2014,04,09,08,59,8.40
2014,04,09,09,00,8.50
2014,04,09,09,01,8.60
2014,04,09,09,02,8.60
2014,04,09,09,03,8.70
2014,04,09,09,04,8.80
2014,04,09,09,05,8.80
2014,04,09,09,06,8.90
2014,04,09,09,07,9.00
2014,04,09,09,08,9.10
2014,04,09,09,09,9.10
2014,04,09,09,10,9.10
2014,04,09,09,11,9.20
2014,04,09,09,12,9.20
2014,04,09,09,13,9.30
2014,04,09,09,14,9.30
2014,04,09,09,15,9.40
2014,04,09,09,16,9.50
2014,04,09,09,17,9.60
2014,04,09,09,18,9.70
2014,04,09,09,19,9.80
2014,04,09,09,20,9.90
2014,04,09,09,21,9.90
2014,04,09,09,22,9.90
2014,04,09,09,23,10.00
2014,04,09,09,24,10.00
2014,04,09,09,25,10.10
2014,04,09,09,26,10.20
2014,04,09,09,27,10.20
2014,04,09,09,28,10.30
2014,04,09,09,29,10.30
2014,04,09,09,30,10.30
2014,04,09,09,31,10.30
2014,04,09,09,32,10.30
2014,04,09,09,33,10.30
2014,04,09,09,34,10.30
2014,04,09,09,35,10.30
2014,04,09,09,36,10.30
2014,04,09,09,37,10.30
2014,04,09,09,38,10.40
2014,04,09,09,39,10.40
2014,04,09,09,40,10.40
2014,04,09,09,41,10.50
2014,04,09,09,42,10.50
2014,04,09,09,43,10.50
2014,04,09,09,44,10.50
2014,04,09,09,45,10.50
2014,04,09,09,46,10.50
2014,04,09,09,47,10.60
2014,04,09,09,48,10.60
2014,04,09,09,49,10.50
2014,04,09,09,50,10.40
2014,04,09,09,51,10.30
2014,04,09,09,52,10.20
2014,04,09,09,53,10.10
2014,04,09,09,54,10.10
2014,04,09,09,55,10.00
2014,04,09,09,56,10.00
2014,04,09,09,57,10.00
2014,04,09,09,58,10.00
2014,04,09,09,59,10.10
2014,04,09,10,00,10.10
2014,04,09,10,01,10.20
2014,04,09,10,02,10.30
2014,04,09,10,03,10.40
2014,04,09,10,04,10.40
2014,04,09,10,05,10.50
2014,04,09,10,06,10.50
2014,04,09,10,07,10.50
2014,04,09,10,08,10.60
2014,04,09,10,09,10.60
2014,04,09,10,10,10.60
2014,04,09,10,11,10.70
2014,04,09,10,12,10.70
2014,04,09,10,13,10.70
2014,04,09,10,14,10.70
2014,04,09,10,15,10.70
2014,04,09,10,16,10.70
2014,04,09,10,17,10.70
2014,04,09,10,18,10.70
2014,04,09,10,19,10.70
2014,04,09,10,20,10.70
2014,04,09,10,21,10.70
2014,04,09,10,22,10.70
2014,04,09,10,23,10.60
2014,04,09,10,24,10.60
2014,04,09,10,25,10.50
2014,04,09,10,26,10.50
2014,04,09,10,27,10.50
2014,04,09,10,28,10.60
2014,04,09,10,29,10.60
2014,04,09,10,30,10.60
2014,04,09,10,31,10.70
2014,04,09,10,32,10.70
2014,04,09,10,33,10.80
2014,04,09,10,34,10.80
2014,04,09,10,35,10.90
2014,04,09,10,36,10.90
2014,04,09,10,37,10.90
2014,04,09,10,38,10.90
2014,04,09,10,39,10.90
2014,04,09,10,40,10.90
2014,04,09,10,41,10.90
2014,04,09,10,42,10.80
2014,04,09,10,43,10.80
2014,04,09,10,44,10.70
2014,04,09,10,45,10.70
2014,04,09,10,46,10.70
2014,04,09,10,47,10.60
2014,04,09,10,48,10.60
2014,04,09,10,49,10.60
2014,04,09,10,50,10.60
2014,04,09,10,51,10.70
2014,04,09,10,52,10.80
2014,04,09,10,53,10.90
2014,04,09,10,54,10.90
2014,04,09,10,55,11.00
2014,04,09,10,56,11.10
2014,04,09,10,57,11.10
2014,04,09,10,58,11.20
2014,04,09,10,59,11.20
2014,04,09,11,00,11.30
2014,04,09,11,01,11.30
2014,04,09,11,02,11.40
2014,04,09,11,03,11.50
2014,04,09,11,04,11.60
2014,04,09,11,05,11.60
2014,04,09,11,06,11.70
2014,04,09,11,07,11.70
2014,04,09,11,08,11.70
2014,04,09,11,09,11.70
2014,04,09,11,10,11.70
2014,04,09,11,11,11.70
2014,04,09,11,12,11.70
2014,04,09,11,13,11.70
2014,04,09,11,14,11.70
2014,04,09,11,15,11.80
2014,04,09,11,16,11.80
2014,04,09,11,17,11.80
2014,04,09,11,18,11.90
2014,04,09,11,19,11.90
2014,04,09,11,20,12.00
2014,04,09,11,21,12.10
2014,04,09,11,22,12.10
2014,04,09,11,23,12.20
2014,04,09,11,24,12.20
2014,04,09,11,25,12.20
2014,04,09,11,26,12.20
2014,04,09,11,27,12.20
2014,04,09,11,28,12.20
2014,04,09,11,29,12.20
2014,04,09,11,30,12.30
2014,04,09,11,31,12.30
2014,04,09,11,32,12.20
2014,04,09,11,33,12.20
2014,04,09,11,34,12.20
2014,04,09,11,35,12.20
2014,04,09,11,36,12.10
2014,04,09,11,37,12.10
2014,04,09,11,38,12.00
2014,04,09,11,39,11.90
2014,04,09,11,40,11.90
2014,04,09,11,41,11.80
2014,04,09,11,42,11.70
2014,04,09,11,43,11.60
2014,04,09,11,44,11.60
2014,04,09,11,45,11.50
2014,04,09,11,46,11.50
2014,04,09,11,47,11.50
2014,04,09,11,48,11.40
2014,04,09,11,49,11.40
2014,04,09,11,50,11.40
2014,04,09,11,51,11.40
2014,04,09,11,52,11.40
2014,04,09,11,53,11.40
2014,04,09,11,54,11.40
2014,04,09,11,55,11.40
2014,04,09,11,56,11.40
2014,04,09,11,57,11.40
2014,04,09,11,58,11.40
2014,04,09,11,59,11.40
2014,04,09,12,00,11.40
2014,04,09,12,01,11.40
2014,04,09,12,02,11.40
2014,04,09,12,03,11.40
2014,04,09,12,04,11.40
2014,04,09,12,05,11.40
2014,04,09,12,06,11.40
2014,04,09,12,07,11.30
2014,04,09,12,08,11.30
2014,04,09,12,09,11.30
2014,04,09,12,10,11.30
2014,04,09,12,11,11.30
2014,04,09,12,12,11.30
2014,04,09,12,13,11.30
2014,04,09,12,14,11.30
2014,04,09,12,15,11.30
2014,04,09,12,16,11.40
2014,04,09,12,17,11.50
2014,04,09,12,18,11.60
2014,04,09,12,19,11.60
2014,04,09,12,20,11.70
2014,04,09,12,21,11.70
2014,04,09,12,22,11.70
2014,04,09,12,23,11.70
2014,04,09,12,24,11.70
2014,04,09,12,25,11.80
2014,04,09,12,26,11.90
2014,04,09,12,27,11.90
2014,04,09,12,28,12.00
2014,04,09,12,29,12.00
2014,04,09,12,30,12.00
2014,04,09,12,31,11.90
2014,04,09,12,32,11.90
2014,04,09,12,33,11.90
2014,04,09,12,34,11.80
2014,04,09,12,35,11.80
2014,04,09,12,36,11.80
2014,04,09,12,37,11.90
2014,04,09,12,38,11.90
2014,04,09,12,39,11.90
2014,04,09,12,40,11.90
2014,04,09,12,41,11.90
2014,04,09,12,42,12.00
2014,04,09,12,43,12.00
2014,04,09,12,44,12.10
2014,04,09,12,45,12.20
2014,04,09,12,46,12.30
2014,04,09,12,47,12.40
2014,04,09,12,48,12.40
2014,04,09,12,49,12.40
2014,04,09,12,50,12.40
2014,04,09,12,51,12.40
2014,04,09,12,52,12.40
2014,04,09,12,53,12.50
2014,04,09,12,54,12.60
2014,04,09,12,55,12.60
2014,04,09,12,56,12.60
2014,04,09,12,57,12.60
2014,04,09,12,58,12.60
2014,04,09,12,59,12.60
2014,04,09,13,00,12.60
2014,04,09,13,01,12.60
2014,04,09,13,02,12.70
2014,04,09,13,03,12.70
2014,04,09,13,04,12.70
2014,04,09,13,05,12.70
2014,04,09,13,06,12.70
2014,04,09,13,07,12.70
2014,04,09,13,08,12.80
2014,04,09,13,09,12.80
2014,04,09,13,10,12.90
2014,04,09,13,11,12.90
2014,04,09,13,12,13.00
2014,04,09,13,13,13.10
2014,04,09,13,14,13.10
2014,04,09,13,15,13.10
2014,04,09,13,16,13.10
2014,04,09,13,17,13.10
2014,04,09,13,18,13.00
2014,04,09,13,19,13.00
2014,04,09,13,20,13.00
2014,04,09,13,21,12.90
2014,04,09,13,22,12.90
2014,04,09,13,23,12.80
2014,04,09,13,24,12.80
2014,04,09,13,25,12.70
2014,04,09,13,26,12.70
2014,04,09,13,27,12.60
2014,04,09,13,28,12.60
2014,04,09,13,29,12.60
2014,04,09,13,30,12.60
2014,04,09,13,31,12.60
2014,04,09,13,32,12.60
2014,04,09,13,33,12.60
2014,04,09,13,34,12.70
2014,04,09,13,35,12.70
2014,04,09,13,36,12.70
2014,04,09,13,37,12.70
2014,04,09,13,38,12.70
2014,04,09,13,39,12.70
2014,04,09,13,40,12.60
2014,04,09,13,41,12.60
2014,04,09,13,42,12.60
2014,04,09,13,43,12.70
2014,04,09,13,44,12.70
2014,04,09,13,45,12.80
2014,04,09,13,46,12.80
2014,04,09,13,47,13.00
2014,04,09,13,48,13.10
2014,04,09,13,49,13.10
2014,04,09,13,50,13.00
2014,04,09,13,51,12.90
2014,04,09,13,52,12.90
2014,04,09,13,53,12.90
2014,04,09,13,54,13.00
2014,04,09,13,55,12.90
2014,04,09,13,56,12.90
2014,04,09,13,57,12.90
2014,04,09,13,58,12.90
2014,04,09,13,59,12.90
2014,04,09,14,00,13.00
2014,04,09,14,01,13.10
2014,04,09,14,02,13.20
2014,04,09,14,03,13.20
2014,04,09,14,04,13.20
2014,04,09,14,05,13.20
2014,04,09,14,06,13.30
2014,04,09,14,07,13.30
2014,04,09,14,08,13.20
2014,04,09,14,09,13.20
2014,04,09,14,10,13.20
2014,04,09,14,11,13.20
2014,04,09,14,12,13.30
2014,04,09,14,13,13.30
2014,04,09,14,14,13.30
2014,04,09,14,15,13.30
2014,04,09,14,16,13.40
2014,04,09,14,17,13.50
2014,04,09,14,18,13.50
2014,04,09,14,19,13.50
2014,04,09,14,20,13.50
2014,04,09,14,21,13.40
2014,04,09,14,22,13.40
2014,04,09,14,23,13.40
2014,04,09,14,24,13.40
2014,04,09,14,25,13.50
2014,04,09,14,26,13.50
2014,04,09,14,27,13.50
2014,04,09,14,28,13.40
2014,04,09,14,29,13.40
2014,04,09,14,30,13.40
2014,04,09,14,31,13.40
2014,04,09,14,32,13.50
2014,04,09,14,33,13.50
2014,04,09,14,34,13.60
2014,04,09,14,35,13.70
2014,04,09,14,36,13.60
2014,04,09,14,37,13.60
2014,04,09,14,38,13.60
2014,04,09,14,39,13.50
2014,04,09,14,40,13.50
2014,04,09,14,41,13.50
2014,04,09,14,42,13.50
2014,04,09,14,43,13.50
2014,04,09,14,44,13.60
2014,04,09,14,45,13.60
2014,04,09,14,46,13.80
2014,04,09,14,47,13.80
2014,04,09,14,48,13.90
2014,04,09,14,49,13.90
2014,04,09,14,50,13.90
2014,04,09,14,51,13.80
2014,04,09,14,52,13.70
2014,04,09,14,53,13.60
2014,04,09,14,54,13.60
2014,04,09,14,55,13.60
2014,04,09,14,56,13.70
2014,04,09,14,57,13.70
2014,04,09,14,58,13.60
2014,04,09,14,59,13.50
2014,04,09,15,00,13.40
2014,04,09,15,01,13.30
2014,04,09,15,02,13.30
2014,04,09,15,03,13.40
2014,04,09,15,04,13.40
2014,04,09,15,05,13.40
2014,04,09,15,06,13.40
2014,04,09,15,07,13.30
2014,04,09,15,08,13.30
2014,04,09,15,09,13.40
2014,04,09,15,10,13.40
2014,04,09,15,11,13.40
2014,04,09,15,12,13.40
2014,04,09,15,13,13.50
2014,04,09,15,14,13.50
2014,04,09,15,15,13.60
2014,04,09,15,16,13.70
2014,04,09,15,17,13.80
2014,04,09,15,18,13.90
2014,04,09,15,19,14.10
2014,04,09,15,20,14.10
2014,04,09,15,21,14.10
2014,04,09,15,22,14.10
2014,04,09,15,23,14.10
2014,04,09,15,24,14.20
2014,04,09,15,25,14.30
2014,04,09,15,26,14.30
2014,04,09,15,27,14.20
2014,04,09,15,28,14.20
2014,04,09,15,29,14.20
2014,04,09,15,30,14.20
2014,04,09,15,31,14.20
2014,04,09,15,32,14.10
2014,04,09,15,33,14.10
2014,04,09,15,34,14.00
2014,04,09,15,35,13.90
2014,04,09,15,36,13.90
2014,04,09,15,37,13.80
2014,04,09,15,38,13.80
2014,04,09,15,39,13.80
2014,04,09,15,40,13.80
2014,04,09,15,41,13.70
2014,04,09,15,42,13.70
2014,04,09,15,43,13.80
2014,04,09,15,44,13.80
2014,04,09,15,45,13.90
2014,04,09,15,46,13.90
2014,04,09,15,47,14.00
2014,04,09,15,48,14.00
2014,04,09,15,49,14.10
2014,04,09,15,50,14.00
2014,04,09,15,51,14.00
2014,04,09,15,52,14.00
2014,04,09,15,53,14.10
2014,04,09,15,54,14.10
2014,04,09,15,55,14.10
2014,04,09,15,56,14.20
2014,04,09,15,57,14.30
2014,04,09,15,58,14.30
2014,04,09,15,59,14.40
2014,04,09,16,00,14.40
2014,04,09,16,01,14.30
2014,04,09,16,02,14.30
2014,04,09,16,03,14.20
2014,04,09,16,04,14.20
2014,04,09,16,05,14.20
2014,04,09,16,06,14.10
2014,04,09,16,07,14.20
2014,04,09,16,08,14.20
2014,04,09,16,09,14.20
2014,04,09,16,10,14.20
2014,04,09,16,11,14.20
2014,04,09,16,12,14.30
2014,04,09,16,13,14.30
2014,04,09,16,14,14.30
2014,04,09,16,15,14.30
2014,04,09,16,16,14.30
2014,04,09,16,17,14.30
2014,04,09,16,18,14.20
2014,04,09,16,19,14.20
2014,04,09,16,20,14.20
2014,04,09,16,21,14.10
2014,04,09,16,22,14.00
2014,04,09,16,23,14.00
2014,04,09,16,24,14.00
2014,04,09,16,25,14.10
2014,04,09,16,26,14.10
2014,04,09,16,27,14.20
2014,04,09,16,28,14.20
2014,04,09,16,29,14.20
2014,04,09,16,30,14.20
2014,04,09,16,31,14.20
2014,04,09,16,32,14.20
2014,04,09,16,33,14.20
2014,04,09,16,34,14.20
2014,04,09,16,35,14.20
2014,04,09,16,36,14.30
2014,04,09,16,37,14.40
2014,04,09,16,38,14.40
2014,04,09,16,39,14.50
2014,04,09,16,40,14.50
2014,04,09,16,41,14.50
2014,04,09,16,42,14.50
2014,04,09,16,43,14.40
2014,04,09,16,44,14.40
2014,04,09,16,45,14.40
2014,04,09,16,46,14.30
2014,04,09,16,47,14.20
2014,04,09,16,48,14.20
2014,04,09,16,49,14.20
2014,04,09,16,50,14.30
2014,04,09,16,51,14.30
2014,04,09,16,52,14.40
2014,04,09,16,53,14.40
2014,04,09,16,54,14.50
2014,04,09,16,55,14.50
2014,04,09,16,56,14.60
2014,04,09,16,57,14.60
2014,04,09,16,58,14.60
2014,04,09,16,59,14.60
2014,04,09,17,00,14.50
2014,04,09,17,01,14.50
2014,04,09,17,02,14.30
2014,04,09,17,03,14.30
2014,04,09,17,04,14.30
2014,04,09,17,05,14.30
2014,04,09,17,06,14.30
2014,04,09,17,07,14.30
2014,04,09,17,08,14.20
2014,04,09,17,09,14.10
2014,04,09,17,10,14.10
2014,04,09,17,11,14.00
2014,04,09,17,12,13.90
2014,04,09,17,13,13.90
2014,04,09,17,14,13.90
2014,04,09,17,15,13.80
2014,04,09,17,16,13.90
2014,04,09,17,17,13.90
2014,04,09,17,18,13.90
2014,04,09,17,19,13.90
2014,04,09,17,20,13.90
2014,04,09,17,21,13.90
2014,04,09,17,22,13.90
2014,04,09,17,23,13.90
2014,04,09,17,24,13.90
2014,04,09,17,25,13.80
2014,04,09,17,26,13.70
2014,04,09,17,27,13.70
2014,04,09,17,28,13.60
2014,04,09,17,29,13.60
2014,04,09,17,30,13.60
2014,04,09,17,31,13.50
2014,04,09,17,32,13.50
2014,04,09,17,33,13.60
2014,04,09,17,34,13.60
2014,04,09,17,35,13.70
2014,04,09,17,36,13.70
2014,04,09,17,37,13.70
2014,04,09,17,38,13.70
2014,04,09,17,39,13.70
2014,04,09,17,40,13.70
2014,04,09,17,41,13.70
2014,04,09,17,42,13.70
2014,04,09,17,43,13.70